This is the latest recevied weather packets stored in our database for station/object HB9KBJ-8. If no packets are shown the sender has not sent any weather packets the latest 10 day(s).
| Time | Temp. | Humidity | Pressure | Rain* | Wind** | Luminosity | Snow |
|---|---|---|---|---|---|---|---|
| 1777466536 | 17.78° C | 52% | 1018.1 hPa | 0 mm | - | 765 W/m² | - |
| 1777466238 | 17.78° C | 52% | 1018.2 hPa | 0 mm | - | 733 W/m² | - |
| 1777465942 | 17.78° C | 52% | 1018.2 hPa | 0 mm | - | 737 W/m² | - |
| 1777465643 | 17.22° C | 53% | 1018.1 hPa | 0 mm | - | 788 W/m² | - |
| 1777465341 | 17.22° C | 54% | 1018.2 hPa | 0 mm | - | 747 W/m² | - |
| 1777465041 | 16.67° C | 55% | 1018.2 hPa | 0 mm | - | 543 W/m² | - |
| 1777464737 | 16.67° C | 55% | 1018.3 hPa | 0 mm | - | 606 W/m² | - |
| 1777464453 | 16.67° C | 57% | 1018.3 hPa | 0 mm | - | 598 W/m² | - |
| 1777464138 | 16.67° C | 56% | 1018.4 hPa | 0 mm | - | 364 W/m² | - |
| 1777463852 | 16.11° C | 56% | 1018.3 hPa | 0 mm | - | 450 W/m² | - |
| 1777463548 | 16.11° C | 56% | 1018.3 hPa | 0 mm | - | 526 W/m² | - |
| 1777463244 | 16.11° C | 56% | 1018.3 hPa | 0 mm | - | 383 W/m² | - |
| 1777462945 | 16.11° C | 57% | 1018.4 hPa | 0 mm | - | 441 W/m² | - |
| 1777462642 | 16.11° C | 58% | 1018.4 hPa | 0 mm | - | 385 W/m² | - |
| 1777462334 | 16.11° C | 57% | 1018.4 hPa | 0 mm | - | 418 W/m² | - |
| 1777462045 | 15.56° C | 58% | 1018.4 hPa | 0 mm | - | 455 W/m² | - |
| 1777461745 | 15.56° C | 57% | 1018.4 hPa | 0 mm | - | 445 W/m² | - |
| 1777461440 | 15.56° C | 58% | 1018.4 hPa | 0 mm | - | 497 W/m² | - |
| 1777461143 | 15.56° C | 57% | 1018.5 hPa | 0 mm | - | 468 W/m² | - |
| 1777460841 | 15.56° C | 59% | 1018.5 hPa | 0 mm | - | 424 W/m² | - |
| 1777460538 | 15.56° C | 58% | 1018.5 hPa | 0 mm | - | 376 W/m² | - |
| 1777460252 | 15° C | 58% | 1018.5 hPa | 0 mm | - | 424 W/m² | - |
| 1777459946 | 15.56° C | 58% | 1018.5 hPa | 0 mm | - | 432 W/m² | - |
| 1777459643 | 15° C | 59% | 1018.5 hPa | 0 mm | - | 462 W/m² | - |
| 1777459347 | 15° C | 60% | 1018.6 hPa | 0 mm | - | 550 W/m² | - |
* Rain latest hour (hover to see other rain measurements)
** Current wind speed in m/s (hover to see current wind gust speed)